contact:dominique.lefevre@mio.osupytheas.fr, maurice.libes@osupytheas.fr, didier.mallarino@osupytheas.fr
Project:EMSO http://www.emso-fr.org/EMSO-France
Depth: 2436.0 m
Title:EMSO Ligure Ouest : Data MII capteur MICROCAT
DateTime_Computer,Latitude,Longitude,Temperature,Conductivity,Pressure,DateTime_Instrument
DateTime_Computer,Latitude,Longitude,degC,S m-1,dbar,DateTime_Instrument
2021-02-02T00:00:19Z,42.805,6.029,13.2998,4.60052,2470.24,2021-2-02T02:01:22Z
2021-02-02T00:03:23Z,42.805,6.029,13.3020,4.60079,2470.264,2021-2-02T02:04:25Z
2021-02-02T00:06:26Z,42.805,6.029,13.3004,4.60068,2470.227,2021-2-02T02:07:28Z
2021-02-02T00:09:29Z,42.805,6.029,13.3015,4.60058,2470.203,2021-2-02T02:10:32Z
2021-02-02T00:12:32Z,42.805,6.029,13.3015,4.60071,2470.227,2021-2-02T02:13:35Z
2021-02-02T00:15:35Z,42.805,6.029,13.3008,4.60091,2470.203,2021-2-02T02:16:38Z
2021-02-02T00:18:38Z,42.805,6.029,13.3014,4.60070,2470.24,2021-2-02T02:19:41Z
2021-02-02T00:21:41Z,42.805,6.029,13.3025,4.60087,2470.24,2021-2-02T02:22:44Z
2021-02-02T00:24:44Z,42.805,6.029,13.3006,4.60073,2470.203,2021-2-02T02:25:47Z
2021-02-02T00:27:47Z,42.805,6.029,13.3005,4.60068,2470.227,2021-2-02T02:28:50Z
2021-02-02T00:30:51Z,42.805,6.029,13.3007,4.60036,2470.18,2021-2-02T02:31:53Z
2021-02-02T00:33:54Z,42.805,6.029,13.3011,4.60078,2470.18,2021-2-02T02:34:56Z
2021-02-02T00:36:57Z,42.805,6.029,13.3013,4.60099,2470.203,2021-2-02T02:38:00Z
2021-02-02T00:40:00Z,42.805,6.029,13.3011,4.60091,2470.194,2021-2-02T02:41:03Z
2021-02-02T00:43:03Z,42.805,6.029,13.3002,4.60074,2470.203,2021-2-02T02:44:06Z
2021-02-02T00:46:06Z,42.805,6.029,13.3006,4.60074,2470.194,2021-2-02T02:47:09Z
2021-02-02T00:49:09Z,42.805,6.029,13.3004,4.60074,2470.18,2021-2-02T02:50:12Z
2021-02-02T00:52:12Z,42.805,6.029,13.3014,4.60086,2470.203,2021-2-02T02:53:15Z
2021-02-02T00:55:16Z,42.805,6.029,13.3021,4.60081,2470.18,2021-2-02T02:56:18Z
2021-02-02T00:58:19Z,42.805,6.029,13.3015,4.60097,2470.194,2021-2-02T02:59:21Z
2021-02-02T01:01:22Z,42.805,6.029,13.3031,4.60098,2470.194,2021-2-02T03:02:25Z
2021-02-02T01:04:25Z,42.805,6.029,13.3008,4.60132,2470.147,2021-2-02T03:05:28Z
2021-02-02T01:07:28Z,42.805,6.029,13.3022,4.60079,2470.171,2021-2-02T03:08:31Z
2021-02-02T01:10:31Z,42.805,6.029,13.3027,4.60046,2470.133,2021-2-02T03:11:34Z
2021-02-02T01:13:34Z,42.805,6.029,13.3002,4.60045,2470.171,2021-2-02T03:14:37Z
2021-02-02T01:16:37Z,42.805,6.029,13.3010,4.60074,2470.171,2021-2-02T03:17:40Z
2021-02-02T01:19:40Z,42.805,6.029,13.3021,4.60071,2470.147,2021-2-02T03:20:43Z
2021-02-02T01:22:44Z,42.805,6.029,13.3011,4.60079,2470.194,2021-2-02T03:23:46Z
2021-02-02T01:25:47Z,42.805,6.029,13.3019,4.60054,2470.156,2021-2-02T03:26:49Z
2021-02-02T01:28:50Z,42.805,6.029,13.3019,4.60127,2470.171,2021-2-02T03:29:53Z
2021-02-02T01:31:53Z,42.805,6.029,13.3016,4.60033,2470.171,2021-2-02T03:32:56Z
2021-02-02T01:34:56Z,42.805,6.029,13.3011,4.60056,2470.156,2021-2-02T03:35:59Z
2021-02-02T01:37:59Z,42.805,6.029,13.3009,4.60058,2470.133,2021-2-02T03:39:02Z
2021-02-02T01:41:02Z,42.805,6.029,13.3008,4.60050,2470.194,2021-2-02T03:42:05Z
2021-02-02T01:44:05Z,42.805,6.029,13.3011,4.60050,2470.194,2021-2-02T03:45:08Z
2021-02-02T01:47:08Z,42.805,6.029,13.3029,4.60072,2470.156,2021-2-02T03:48:11Z
2021-02-02T01:50:12Z,42.805,6.029,13.3014,4.60060,2470.171,2021-2-02T03:51:14Z
2021-02-02T01:53:15Z,42.805,6.029,13.3038,4.60044,2470.18,2021-2-02T03:54:18Z
2021-02-02T01:56:18Z,42.805,6.029,13.3011,4.60052,2470.18,2021-2-02T03:57:21Z
2021-02-02T01:59:21Z,42.805,6.029,13.3024,4.60075,2470.147,2021-2-02T04:00:24Z
2021-02-02T02:02:24Z,42.805,6.029,13.3024,4.60063,2470.171,2021-2-02T04:03:27Z
2021-02-02T02:05:27Z,42.805,6.029,13.3021,4.60059,2470.087,2021-2-02T04:06:30Z
2021-02-02T02:08:30Z,42.805,6.029,13.3018,4.60051,2470.11,2021-2-02T04:09:33Z
2021-02-02T02:11:33Z,42.805,6.029,13.3015,4.60046,2470.171,2021-2-02T04:12:36Z
2021-02-02T02:14:37Z,42.805,6.029,13.3008,4.60046,2470.194,2021-2-02T04:15:39Z
2021-02-02T02:17:40Z,42.805,6.029,13.3009,4.60112,2470.124,2021-2-02T04:18:42Z
2021-02-02T02:20:43Z,42.805,6.029,13.3015,4.60055,2470.156,2021-2-02T04:21:46Z
2021-02-02T02:23:46Z,42.805,6.029,13.3013,4.60067,2470.11,2021-2-02T04:24:49Z
2021-02-02T02:26:49Z,42.805,6.029,13.3025,4.60025,2470.147,2021-2-02T04:27:52Z
2021-02-02T02:29:52Z,42.805,6.029,13.3001,4.60081,2470.124,2021-2-02T04:30:55Z
2021-02-02T02:32:55Z,42.805,6.029,13.3007,4.60095,2470.147,2021-2-02T04:33:58Z
2021-02-02T02:35:58Z,42.805,6.029,13.3007,4.60051,2470.194,2021-2-02T04:37:01Z
2021-02-02T02:39:01Z,42.805,6.029,13.3022,4.60035,2470.156,2021-2-02T04:40:04Z
2021-02-02T02:42:05Z,42.805,6.029,13.3029,4.60049,2470.156,2021-2-02T04:43:07Z
2021-02-02T02:45:08Z,42.805,6.029,13.3019,4.60039,2470.171,2021-2-02T04:46:11Z
2021-02-02T02:48:11Z,42.805,6.029,13.3032,4.60031,2470.133,2021-2-02T04:49:14Z
2021-02-02T02:51:14Z,42.805,6.029,13.3024,4.60064,2470.124,2021-2-02T04:52:17Z
2021-02-02T02:54:17Z,42.805,6.029,13.3026,4.60058,2470.124,2021-2-02T04:55:20Z
2021-02-02T02:57:20Z,42.805,6.029,13.3031,4.60027,2470.11,2021-2-02T04:58:23Z
2021-02-02T03:00:23Z,42.805,6.029,13.3064,4.60005,2470.124,2021-2-02T05:01:26Z
2021-02-02T03:03:26Z,42.805,6.029,13.3070,4.60004,2470.087,2021-2-02T05:04:29Z
2021-02-02T03:06:30Z,42.805,6.029,13.3061,4.60002,2470.147,2021-2-02T05:07:32Z
2021-02-02T03:09:33Z,42.805,6.029,13.3031,4.60004,2470.11,2021-2-02T05:10:35Z
2021-02-02T03:12:36Z,42.805,6.029,13.3003,4.60003,2470.147,2021-2-02T05:13:39Z
2021-02-02T03:15:39Z,42.805,6.029,13.3006,4.60035,2470.11,2021-2-02T05:16:42Z
2021-02-02T03:18:42Z,42.805,6.029,13.2990,4.60068,2470.11,2021-2-02T05:19:45Z
2021-02-02T03:21:45Z,42.805,6.029,13.2993,4.60087,2470.11,2021-2-02T05:22:48Z
2021-02-02T03:24:48Z,42.805,6.029,13.2991,4.60012,2470.124,2021-2-02T05:25:51Z
2021-02-02T03:27:51Z,42.805,6.029,13.2995,4.60003,2470.133,2021-2-02T05:28:54Z
2021-02-02T03:30:55Z,42.805,6.029,13.2989,4.60003,2470.087,2021-2-02T05:31:57Z
2021-02-02T03:33:58Z,42.805,6.029,13.2991,4.60004,2470.11,2021-2-02T05:35:00Z
2021-02-02T03:37:01Z,42.805,6.029,13.2993,4.59999,2470.11,2021-2-02T05:38:04Z
2021-02-02T03:40:04Z,42.805,6.029,13.2991,4.60001,2470.11,2021-2-02T05:41:07Z
2021-02-02T03:43:07Z,42.805,6.029,13.2987,4.60008,2470.087,2021-2-02T05:44:10Z
2021-02-02T03:46:10Z,42.805,6.029,13.2991,4.60003,2470.11,2021-2-02T05:47:13Z
2021-02-02T03:49:13Z,42.805,6.029,13.2991,4.60003,2470.138,2021-2-02T05:50:16Z
2021-02-02T03:52:16Z,42.805,6.029,13.2987,4.59996,2470.11,2021-2-02T05:53:19Z
2021-02-02T03:55:19Z,42.805,6.029,13.2993,4.59994,2470.124,2021-2-02T05:56:22Z
2021-02-02T03:58:23Z,42.805,6.029,13.2993,4.59998,2470.147,2021-2-02T05:59:25Z
2021-02-02T04:01:26Z,42.805,6.029,13.2996,4.59995,2470.11,2021-2-02T06:02:29Z
2021-02-02T04:04:29Z,42.805,6.029,13.2998,4.59996,2470.147,2021-2-02T06:05:32Z
2021-02-02T04:07:32Z,42.805,6.029,13.2999,4.59995,2470.087,2021-2-02T06:08:35Z
2021-02-02T04:10:35Z,42.805,6.029,13.3006,4.59996,2470.133,2021-2-02T06:11:38Z
2021-02-02T04:13:38Z,42.805,6.029,13.2996,4.59995,2470.087,2021-2-02T06:14:41Z
2021-02-02T04:16:41Z,42.805,6.029,13.2998,4.60000,2470.133,2021-2-02T06:17:44Z
2021-02-02T04:19:44Z,42.805,6.029,13.3003,4.59996,2470.11,2021-2-02T06:20:47Z
2021-02-02T04:22:48Z,42.805,6.029,13.2998,4.59995,2470.11,2021-2-02T06:23:50Z
2021-02-02T04:25:51Z,42.805,6.029,13.2992,4.59995,2470.124,2021-2-02T06:26:53Z
2021-02-02T04:28:54Z,42.805,6.029,13.2988,4.59997,2470.124,2021-2-02T06:29:57Z
2021-02-02T04:31:57Z,42.805,6.029,13.2993,4.59994,2470.124,2021-2-02T06:33:00Z
2021-02-02T04:35:00Z,42.805,6.029,13.2990,4.59994,2470.147,2021-2-02T06:36:03Z
2021-02-02T04:38:03Z,42.805,6.029,13.2989,4.59999,2470.124,2021-2-02T06:39:06Z
2021-02-02T04:41:06Z,42.805,6.029,13.2983,4.59995,2470.11,2021-2-02T06:42:09Z
2021-02-02T04:44:09Z,42.805,6.029,13.2983,4.59994,2470.124,2021-2-02T06:45:12Z
2021-02-02T04:47:12Z,42.805,6.029,13.2986,4.59999,2470.087,2021-2-02T06:48:15Z
2021-02-02T04:50:16Z,42.805,6.029,13.2988,4.59994,2470.087,2021-2-02T06:51:18Z
2021-02-02T04:53:19Z,42.805,6.029,13.2988,4.59991,2470.11,2021-2-02T06:54:22Z
2021-02-02T04:56:22Z,42.805,6.029,13.2985,4.59992,2470.124,2021-2-02T06:57:25Z
2021-02-02T04:59:25Z,42.805,6.029,13.2989,4.59993,2470.1,2021-2-02T07:00:28Z
2021-02-02T05:02:28Z,42.805,6.029,13.2984,4.59993,2470.11,2021-2-02T07:03:31Z
2021-02-02T05:05:31Z,42.805,6.029,13.2986,4.59991,2470.077,2021-2-02T07:06:34Z
2021-02-02T05:08:34Z,42.805,6.029,13.2984,4.59994,2470.11,2021-2-02T07:09:37Z
2021-02-02T05:11:37Z,42.805,6.029,13.2987,4.59994,2470.1,2021-2-02T07:12:40Z
2021-02-02T05:14:41Z,42.805,6.029,13.2989,4.59993,2470.11,2021-2-02T07:15:43Z
2021-02-02T05:17:44Z,42.805,6.029,13.2989,4.59992,2470.087,2021-2-02T07:18:47Z
2021-02-02T05:20:47Z,42.805,6.029,13.2988,4.59999,2470.087,2021-2-02T07:21:50Z
2021-02-02T05:23:50Z,42.805,6.029,13.2986,4.59996,2470.124,2021-2-02T07:24:53Z
2021-02-02T05:26:53Z,42.805,6.029,13.2983,4.59994,2470.124,2021-2-02T07:27:56Z
2021-02-02T05:29:56Z,42.805,6.029,13.2988,4.59995,2470.096,2021-2-02T07:30:59Z
2021-02-02T05:32:59Z,42.805,6.029,13.2986,4.59992,2470.124,2021-2-02T07:34:02Z
2021-02-02T05:36:02Z,42.805,6.029,13.2986,4.60001,2470.133,2021-2-02T07:37:05Z
2021-02-02T05:39:05Z,42.805,6.029,13.2986,4.59993,2470.11,2021-2-02T07:40:08Z
2021-02-02T05:42:09Z,42.805,6.029,13.2988,4.59993,2470.133,2021-2-02T07:43:11Z
2021-02-02T05:45:12Z,42.805,6.029,13.2990,4.59994,2470.11,2021-2-02T07:46:15Z
2021-02-02T05:48:15Z,42.805,6.029,13.2987,4.59994,2470.11,2021-2-02T07:49:18Z
2021-02-02T05:51:18Z,42.805,6.029,13.2986,4.59998,2470.124,2021-2-02T07:52:21Z
2021-02-02T05:54:21Z,42.805,6.029,13.2990,4.59995,2470.11,2021-2-02T07:55:24Z
2021-02-02T05:57:24Z,42.805,6.029,13.2988,4.59995,2470.11,2021-2-02T07:58:27Z
2021-02-02T06:00:27Z,42.805,6.029,13.2991,4.60001,2470.11,2021-2-02T08:01:30Z
2021-02-02T06:03:30Z,42.805,6.029,13.2986,4.59995,2470.156,2021-2-02T08:04:33Z
2021-02-02T06:06:34Z,42.805,6.029,13.2987,4.59998,2470.133,2021-2-02T08:07:36Z
2021-02-02T06:09:37Z,42.805,6.029,13.2986,4.59995,2470.147,2021-2-02T08:10:40Z
2021-02-02T06:12:40Z,42.805,6.029,13.2984,4.59997,2470.133,2021-2-02T08:13:43Z
2021-02-02T06:15:43Z,42.805,6.029,13.2983,4.59996,2470.133,2021-2-02T08:16:46Z
2021-02-02T06:18:46Z,42.805,6.029,13.2989,4.59995,2470.171,2021-2-02T08:19:49Z
2021-02-02T06:21:49Z,42.805,6.029,13.2991,4.59995,2470.171,2021-2-02T08:22:52Z
2021-02-02T06:24:52Z,42.805,6.029,13.2988,4.59994,2470.171,2021-2-02T08:25:55Z
2021-02-02T06:27:55Z,42.805,6.029,13.2986,4.59992,2470.171,2021-2-02T08:28:58Z
2021-02-02T06:30:59Z,42.805,6.029,13.2989,4.59994,2470.156,2021-2-02T08:32:01Z
2021-02-02T06:34:02Z,42.805,6.029,13.2989,4.59992,2470.171,2021-2-02T08:35:04Z
2021-02-02T06:37:05Z,42.805,6.029,13.2987,4.59992,2470.156,2021-2-02T08:38:08Z
2021-02-02T06:40:08Z,42.805,6.029,13.2990,4.59992,2470.171,2021-2-02T08:41:11Z
2021-02-02T06:43:11Z,42.805,6.029,13.2991,4.59993,2470.194,2021-2-02T08:44:14Z
2021-02-02T06:46:14Z,42.805,6.029,13.2992,4.59995,2470.133,2021-2-02T08:47:17Z
2021-02-02T06:49:17Z,42.805,6.029,13.2989,4.59995,2470.133,2021-2-02T08:50:20Z
2021-02-02T06:52:20Z,42.805,6.029,13.2990,4.59992,2470.171,2021-2-02T08:53:23Z
2021-02-02T06:55:23Z,42.805,6.029,13.2986,4.59992,2470.133,2021-2-02T08:56:26Z
2021-02-02T06:58:27Z,42.805,6.029,13.2986,4.59994,2470.171,2021-2-02T08:59:29Z
2021-02-02T07:01:30Z,42.805,6.029,13.2990,4.59992,2470.18,2021-2-02T09:02:33Z
2021-02-02T07:04:33Z,42.805,6.029,13.2990,4.59994,2470.194,2021-2-02T09:05:36Z
2021-02-02T07:07:36Z,42.805,6.029,13.2988,4.59994,2470.217,2021-2-02T09:08:39Z
2021-02-02T07:10:39Z,42.805,6.029,13.2988,4.59994,2470.18,2021-2-02T09:11:42Z
2021-02-02T07:13:42Z,42.805,6.029,13.2988,4.59993,2470.194,2021-2-02T09:14:45Z
2021-02-02T07:16:45Z,42.805,6.029,13.2991,4.59991,2470.217,2021-2-02T09:17:48Z
2021-02-02T07:19:48Z,42.805,6.029,13.2988,4.59991,2470.227,2021-2-02T09:20:51Z
2021-02-02T07:22:52Z,42.805,6.029,13.2988,4.59992,2470.194,2021-2-02T09:23:54Z
2021-02-02T07:25:55Z,42.805,6.029,13.2983,4.59994,2470.18,2021-2-02T09:26:57Z
2021-02-02T07:28:58Z,42.805,6.029,13.2990,4.59992,2470.217,2021-2-02T09:30:01Z
2021-02-02T07:32:01Z,42.805,6.029,13.2991,4.59993,2470.203,2021-2-02T09:33:04Z
2021-02-02T07:35:04Z,42.805,6.029,13.2989,4.59992,2470.203,2021-2-02T09:36:07Z
2021-02-02T07:38:07Z,42.805,6.029,13.2990,4.59994,2470.24,2021-2-02T09:39:10Z
2021-02-02T07:41:10Z,42.805,6.029,13.2987,4.59992,2470.227,2021-2-02T09:42:13Z
2021-02-02T07:44:13Z,42.805,6.029,13.2991,4.59992,2470.217,2021-2-02T09:45:16Z
2021-02-02T07:47:16Z,42.805,6.029,13.2988,4.59995,2470.24,2021-2-02T09:48:19Z
2021-02-02T07:50:20Z,42.805,6.029,13.2988,4.59994,2470.227,2021-2-02T09:51:22Z
2021-02-02T07:53:23Z,42.805,6.029,13.2986,4.59994,2470.25,2021-2-02T09:54:26Z
2021-02-02T07:56:26Z,42.805,6.029,13.2986,4.59991,2470.203,2021-2-02T09:57:29Z
2021-02-02T07:59:29Z,42.805,6.029,13.2991,4.59994,2470.203,2021-2-02T10:00:32Z
2021-02-02T08:02:32Z,42.805,6.029,13.2987,4.59991,2470.287,2021-2-02T10:03:35Z
2021-02-02T08:05:35Z,42.805,6.029,13.2988,4.59992,2470.25,2021-2-02T10:06:38Z
2021-02-02T08:08:38Z,42.805,6.029,13.2988,4.59992,2470.264,2021-2-02T10:09:41Z
2021-02-02T08:11:41Z,42.805,6.029,13.2989,4.59991,2470.273,2021-2-02T10:12:44Z
2021-02-02T08:14:45Z,42.805,6.029,13.2993,4.59991,2470.273,2021-2-02T10:15:47Z
2021-02-02T08:17:48Z,42.805,6.029,13.2987,4.59993,2470.25,2021-2-02T10:18:50Z
2021-02-02T08:20:51Z,42.805,6.029,13.2987,4.59992,2470.25,2021-2-02T10:21:54Z
2021-02-02T08:23:54Z,42.805,6.029,13.2991,4.59993,2470.31,2021-2-02T10:24:57Z
2021-02-02T08:26:57Z,42.805,6.029,13.2985,4.59997,2470.287,2021-2-02T10:28:00Z
2021-02-02T08:30:00Z,42.805,6.029,13.2988,4.59991,2470.273,2021-2-02T10:31:03Z
2021-02-02T08:33:03Z,42.805,6.029,13.2993,4.59991,2470.287,2021-2-02T10:34:06Z
2021-02-02T08:36:06Z,42.805,6.029,13.2985,4.59992,2470.273,2021-2-02T10:37:09Z
2021-02-02T08:39:09Z,42.805,6.029,13.2987,4.59995,2470.273,2021-2-02T10:40:12Z
2021-02-02T08:42:13Z,42.805,6.029,13.2986,4.59992,2470.273,2021-2-02T10:43:15Z
2021-02-02T08:45:16Z,42.805,6.029,13.2987,4.59993,2470.297,2021-2-02T10:46:19Z
2021-02-02T08:48:19Z,42.805,6.029,13.2989,4.59990,2470.32,2021-2-02T10:49:22Z
2021-02-02T08:51:22Z,42.805,6.029,13.2986,4.59991,2470.297,2021-2-02T10:52:25Z
2021-02-02T08:54:25Z,42.805,6.029,13.2986,4.59991,2470.297,2021-2-02T10:55:28Z
2021-02-02T08:57:28Z,42.805,6.029,13.2985,4.59992,2470.32,2021-2-02T10:58:31Z
2021-02-02T09:00:31Z,42.805,6.029,13.2985,4.59991,2470.32,2021-2-02T11:01:34Z
2021-02-02T09:03:34Z,42.805,6.029,13.2983,4.59994,2470.31,2021-2-02T11:04:37Z
2021-02-02T09:06:38Z,42.805,6.029,13.2987,4.59992,2470.31,2021-2-02T11:07:40Z
2021-02-02T09:09:41Z,42.805,6.029,13.2990,4.59994,2470.31,2021-2-02T11:10:44Z
2021-02-02T09:12:44Z,42.805,6.029,13.2989,4.59993,2470.31,2021-2-02T11:13:47Z
2021-02-02T09:15:47Z,42.805,6.029,13.2985,4.59993,2470.343,2021-2-02T11:16:50Z
2021-02-02T09:18:50Z,42.805,6.029,13.2987,4.59991,2470.297,2021-2-02T11:19:53Z
2021-02-02T09:21:53Z,42.805,6.029,13.2990,4.59992,2470.32,2021-2-02T11:22:56Z
2021-02-02T09:24:56Z,42.805,6.029,13.2990,4.59990,2470.32,2021-2-02T11:25:59Z
2021-02-02T09:27:59Z,42.805,6.029,13.2987,4.59994,2470.38,2021-2-02T11:29:02Z
2021-02-02T09:31:03Z,42.805,6.029,13.2987,4.59993,2470.38,2021-2-02T11:32:05Z
2021-02-02T09:34:06Z,42.805,6.029,13.2986,4.59994,2470.343,2021-2-02T11:35:09Z
2021-02-02T09:37:09Z,42.805,6.029,13.2990,4.59991,2470.38,2021-2-02T11:38:12Z
2021-02-02T09:40:12Z,42.805,6.029,13.2990,4.59991,2470.38,2021-2-02T11:41:15Z
2021-02-02T09:43:15Z,42.805,6.029,13.2988,4.59991,2470.357,2021-2-02T11:44:18Z
2021-02-02T09:46:18Z,42.805,6.029,13.2990,4.59991,2470.343,2021-2-02T11:47:21Z
2021-02-02T09:49:21Z,42.805,6.029,13.2990,4.59991,2470.38,2021-2-02T11:50:24Z
2021-02-02T09:52:24Z,42.805,6.029,13.2988,4.59991,2470.366,2021-2-02T11:53:27Z
2021-02-02T09:55:28Z,42.805,6.029,13.2986,4.59994,2470.357,2021-2-02T11:56:30Z
2021-02-02T09:58:31Z,42.805,6.029,13.2990,4.59991,2470.343,2021-2-02T11:59:34Z
2021-02-02T10:01:34Z,42.805,6.029,13.2990,4.59991,2470.366,2021-2-02T12:02:37Z
2021-02-02T10:04:37Z,42.805,6.029,13.2990,4.59991,2470.404,2021-2-02T12:05:40Z
2021-02-02T10:07:40Z,42.805,6.029,13.2989,4.59993,2470.357,2021-2-02T12:08:43Z
2021-02-02T10:10:43Z,42.805,6.029,13.2986,4.59998,2470.343,2021-2-02T12:11:46Z
2021-02-02T10:13:46Z,42.805,6.029,13.2989,4.59993,2470.32,2021-2-02T12:14:49Z
2021-02-02T10:16:49Z,42.805,6.029,13.2983,4.59992,2470.32,2021-2-02T12:17:52Z
2021-02-02T10:19:53Z,42.805,6.029,13.2986,4.59991,2470.33,2021-2-02T12:20:55Z
2021-02-02T10:22:56Z,42.805,6.029,13.2990,4.59992,2470.32,2021-2-02T12:23:58Z
2021-02-02T10:25:59Z,42.805,6.029,13.2988,4.59991,2470.366,2021-2-02T12:27:02Z
2021-02-02T10:29:02Z,42.805,6.029,13.2988,4.59991,2470.38,2021-2-02T12:30:05Z
2021-02-02T10:32:05Z,42.805,6.029,13.2987,4.59991,2470.366,2021-2-02T12:33:08Z
2021-02-02T10:35:08Z,42.805,6.029,13.2986,4.59992,2470.343,2021-2-02T12:36:11Z
2021-02-02T10:38:11Z,42.805,6.029,13.2991,4.59991,2470.343,2021-2-02T12:39:14Z
2021-02-02T10:41:14Z,42.805,6.029,13.2986,4.59992,2470.366,2021-2-02T12:42:17Z
2021-02-02T10:44:18Z,42.805,6.029,13.2986,4.59992,2470.38,2021-2-02T12:45:20Z
2021-02-02T10:47:21Z,42.805,6.029,13.2986,4.59991,2470.39,2021-2-02T12:48:23Z
2021-02-02T10:50:24Z,42.805,6.029,13.2988,4.59993,2470.38,2021-2-02T12:51:27Z
2021-02-02T10:53:27Z,42.805,6.029,13.2986,4.59991,2470.38,2021-2-02T12:54:30Z
2021-02-02T10:56:30Z,42.805,6.029,13.2990,4.59991,2470.38,2021-2-02T12:57:33Z
2021-02-02T10:59:33Z,42.805,6.029,13.2985,4.59994,2470.366,2021-2-02T13:00:36Z
2021-02-02T11:02:36Z,42.805,6.029,13.2990,4.59992,2470.357,2021-2-02T13:03:39Z
2021-02-02T11:05:39Z,42.805,6.029,13.2985,4.59992,2470.334,2021-2-02T13:06:42Z
2021-02-02T11:08:42Z,42.805,6.029,13.2987,4.59991,2470.343,2021-2-02T13:09:45Z
2021-02-02T11:11:46Z,42.805,6.029,13.2989,4.59991,2470.366,2021-2-02T13:12:48Z
2021-02-02T11:14:49Z,42.805,6.029,13.2990,4.59993,2470.343,2021-2-02T13:15:52Z
2021-02-02T11:17:52Z,42.805,6.029,13.2990,4.59993,2470.357,2021-2-02T13:18:55Z
2021-02-02T11:20:55Z,42.805,6.029,13.2988,4.59992,2470.343,2021-2-02T13:21:58Z
2021-02-02T11:23:58Z,42.805,6.029,13.2989,4.59992,2470.343,2021-2-02T13:25:01Z
2021-02-02T11:27:01Z,42.805,6.029,13.2991,4.59993,2470.357,2021-2-02T13:28:04Z
2021-02-02T11:30:04Z,42.805,6.029,13.2991,4.59992,2470.343,2021-2-02T13:31:07Z
2021-02-02T11:33:07Z,42.805,6.029,13.2992,4.59993,2470.366,2021-2-02T13:34:10Z
2021-02-02T11:36:11Z,42.805,6.029,13.2985,4.59993,2470.343,2021-2-02T13:37:13Z
2021-02-02T11:39:14Z,42.805,6.029,13.2990,4.59992,2470.334,2021-2-02T13:40:17Z
2021-02-02T11:42:17Z,42.805,6.029,13.2988,4.59996,2470.334,2021-2-02T13:43:20Z
2021-02-02T11:45:20Z,42.805,6.029,13.2990,4.59994,2470.32,2021-2-02T13:46:23Z
2021-02-02T11:48:23Z,42.805,6.029,13.2986,4.59992,2470.343,2021-2-02T13:49:26Z
2021-02-02T11:51:26Z,42.805,6.029,13.2988,4.59994,2470.343,2021-2-02T13:52:29Z
2021-02-02T11:54:29Z,42.805,6.029,13.2990,4.59995,2470.32,2021-2-02T13:55:32Z
2021-02-02T11:57:32Z,42.805,6.029,13.2987,4.59994,2470.334,2021-2-02T13:58:35Z
2021-02-02T12:00:36Z,42.805,6.029,13.2990,4.59993,2470.32,2021-2-02T14:01:38Z
2021-02-02T12:03:39Z,42.805,6.029,13.2990,4.59996,2470.31,2021-2-02T14:04:42Z
2021-02-02T12:06:42Z,42.805,6.029,13.2988,4.59993,2470.32,2021-2-02T14:07:45Z
2021-02-02T12:09:45Z,42.805,6.029,13.2986,4.60002,2470.31,2021-2-02T14:10:48Z
2021-02-02T12:12:48Z,42.805,6.029,13.2987,4.59994,2470.32,2021-2-02T14:13:51Z
2021-02-02T12:15:51Z,42.805,6.029,13.2988,4.59995,2470.32,2021-2-02T14:16:54Z
2021-02-02T12:18:54Z,42.805,6.029,13.2990,4.59993,2470.31,2021-2-02T14:19:57Z
2021-02-02T12:21:57Z,42.805,6.029,13.2986,4.60001,2470.273,2021-2-02T14:23:00Z
2021-02-02T12:25:01Z,42.805,6.029,13.2988,4.59993,2470.32,2021-2-02T14:26:03Z
2021-02-02T12:28:04Z,42.805,6.029,13.2991,4.59993,2470.31,2021-2-02T14:29:07Z
2021-02-02T12:31:07Z,42.805,6.029,13.2989,4.59998,2470.297,2021-2-02T14:32:10Z
2021-02-02T12:34:10Z,42.805,6.029,13.2987,4.59993,2470.334,2021-2-02T14:35:13Z
2021-02-02T12:37:13Z,42.805,6.029,13.2990,4.59992,2470.297,2021-2-02T14:38:16Z
2021-02-02T12:40:16Z,42.805,6.029,13.2986,4.59994,2470.31,2021-2-02T14:41:19Z
2021-02-02T12:43:19Z,42.805,6.029,13.2991,4.59996,2470.297,2021-2-02T14:44:22Z
2021-02-02T12:46:22Z,42.805,6.029,13.2992,4.59993,2470.297,2021-2-02T14:47:25Z
2021-02-02T12:49:26Z,42.805,6.029,13.2988,4.59997,2470.25,2021-2-02T14:50:28Z
2021-02-02T12:52:29Z,42.805,6.029,13.2991,4.59992,2470.287,2021-2-02T14:53:32Z
2021-02-02T12:55:32Z,42.805,6.029,13.2993,4.59993,2470.273,2021-2-02T14:56:35Z
2021-02-02T12:58:35Z,42.805,6.029,13.2990,4.59999,2470.287,2021-2-02T14:59:38Z
2021-02-02T13:01:38Z,42.805,6.029,13.2991,4.59993,2470.25,2021-2-02T15:02:41Z
2021-02-02T13:04:41Z,42.805,6.029,13.2991,4.59992,2470.264,2021-2-02T15:05:44Z
2021-02-02T13:07:44Z,42.805,6.029,13.2986,4.59992,2470.273,2021-2-02T15:08:47Z
2021-02-02T13:10:47Z,42.805,6.029,13.2992,4.59993,2470.297,2021-2-02T15:11:50Z
2021-02-02T13:13:51Z,42.805,6.029,13.2988,4.59992,2470.273,2021-2-02T15:14:53Z
2021-02-02T13:16:54Z,42.805,6.029,13.2986,4.59992,2470.25,2021-2-02T15:17:57Z
2021-02-02T13:19:57Z,42.805,6.029,13.2990,4.59993,2470.25,2021-2-02T15:21:00Z
2021-02-02T13:23:00Z,42.805,6.029,13.2986,4.59992,2470.31,2021-2-02T15:24:03Z
2021-02-02T13:26:03Z,42.805,6.029,13.2986,4.59992,2470.25,2021-2-02T15:27:06Z
2021-02-02T13:29:06Z,42.805,6.029,13.2990,4.59992,2470.264,2021-2-02T15:30:09Z
2021-02-02T13:32:09Z,42.805,6.029,13.2986,4.59991,2470.254,2021-2-02T15:33:12Z
2021-02-02T13:35:12Z,42.805,6.029,13.2987,4.59993,2470.287,2021-2-02T15:36:15Z
2021-02-02T13:38:15Z,42.805,6.029,13.2989,4.59995,2470.31,2021-2-02T15:39:18Z
2021-02-02T13:41:19Z,42.805,6.029,13.2986,4.59992,2470.227,2021-2-02T15:42:21Z
2021-02-02T13:44:22Z,42.805,6.029,13.2987,4.59991,2470.264,2021-2-02T15:45:25Z
2021-02-02T13:47:25Z,42.805,6.029,13.2989,4.59994,2470.264,2021-2-02T15:48:28Z
2021-02-02T13:50:28Z,42.805,6.029,13.2986,4.59992,2470.273,2021-2-02T15:51:31Z
2021-02-02T13:53:31Z,42.805,6.029,13.2990,4.59992,2470.264,2021-2-02T15:54:34Z
2021-02-02T13:56:34Z,42.805,6.029,13.2989,4.59994,2470.227,2021-2-02T15:57:37Z
2021-02-02T13:59:37Z,42.805,6.029,13.2990,4.59992,2470.264,2021-2-02T16:00:40Z
2021-02-02T14:02:41Z,42.805,6.029,13.2986,4.59992,2470.227,2021-2-02T16:03:43Z
2021-02-02T14:05:44Z,42.805,6.029,13.2990,4.59993,2470.25,2021-2-02T16:06:46Z
2021-02-02T14:08:47Z,42.805,6.029,13.2986,4.59993,2470.25,2021-2-02T16:09:50Z
2021-02-02T14:11:50Z,42.805,6.029,13.2989,4.59993,2470.227,2021-2-02T16:12:53Z
2021-02-02T14:14:53Z,42.805,6.029,13.2990,4.59999,2470.227,2021-2-02T16:15:56Z
2021-02-02T14:17:56Z,42.805,6.029,13.2990,4.59994,2470.227,2021-2-02T16:18:59Z
2021-02-02T14:20:59Z,42.805,6.029,13.2998,4.59993,2470.287,2021-2-02T16:22:02Z
2021-02-02T14:24:02Z,42.805,6.029,13.2998,4.60001,2470.227,2021-2-02T16:25:05Z
2021-02-02T14:27:05Z,42.805,6.029,13.2986,4.59993,2470.24,2021-2-02T16:28:08Z
2021-02-02T14:30:09Z,42.805,6.029,13.2993,4.59994,2470.24,2021-2-02T16:31:11Z
2021-02-02T14:33:12Z,42.805,6.029,13.2990,4.59999,2470.203,2021-2-02T16:34:15Z
2021-02-02T14:36:15Z,42.805,6.029,13.2997,4.59996,2470.227,2021-2-02T16:37:18Z
2021-02-02T14:39:18Z,42.805,6.029,13.2985,4.59996,2470.227,2021-2-02T16:40:21Z
2021-02-02T14:42:21Z,42.805,6.029,13.2988,4.59992,2470.203,2021-2-02T16:43:24Z
2021-02-02T14:45:24Z,42.805,6.029,13.2989,4.59992,2470.25,2021-2-02T16:46:27Z
2021-02-02T14:48:27Z,42.805,6.029,13.2990,4.59992,2470.217,2021-2-02T16:49:30Z
2021-02-02T14:51:30Z,42.805,6.029,13.2988,4.59991,2470.18,2021-2-02T16:52:33Z
2021-02-02T14:54:34Z,42.805,6.029,13.2985,4.59994,2470.227,2021-2-02T16:55:36Z
2021-02-02T14:57:37Z,42.805,6.029,13.2990,4.59993,2470.227,2021-2-02T16:58:40Z
2021-02-02T15:00:40Z,42.805,6.029,13.2985,4.59991,2470.217,2021-2-02T17:01:43Z
2021-02-02T15:03:43Z,42.805,6.029,13.2986,4.59998,2470.203,2021-2-02T17:04:46Z
2021-02-02T15:06:46Z,42.805,6.029,13.2984,4.59992,2470.203,2021-2-02T17:07:49Z
2021-02-02T15:09:49Z,42.805,6.029,13.2986,4.59993,2470.227,2021-2-02T17:10:52Z
2021-02-02T15:12:52Z,42.805,6.029,13.2994,4.59992,2470.18,2021-2-02T17:13:55Z